Weather History for Chicago Lansing, IL

Change the Weather History Date:

Tuesday, July 2, 2013

  Actual Average (KMDW) Record (KMDW)
Temperature  
Mean Temperature 63 °F 75 °F  
Max Temperature 66 °F 84 °F 99 °F (1970)
Min Temperature 60 °F 67 °F 48 °F (1930)
Degree Days  
Heating Degree Days 2 0  
Month to date heating degree days 0  
Since 1 June heating degree days 31  
Since 1 July heating degree days 0  
Cooling Degree Days 0 10  
Month to date cooling degree days 20  
Year to date cooling degree days 304  
Since 1 June cooling degree days 230  
Growing Degree Days 13 (Base 50)    
Moisture  
Dew Point 56 °F    
Average Humidity 78    
Maximum Humidity 94    
Minimum Humidity 64    
Precipitation  
Precipitation 0.00 in 0.10 in 2.50 in (1933)
Month to date precipitation 0.21  
Year to date precipitation 18.76  
Sea Level Pressure  
Sea Level Pressure 30.05 in    
Wind  
Wind Speed 8 mph (NNE)    
Max Wind Speed 15 mph    
Max Gust Speed 21 mph    
Visibility 10 miles    
Events Rain    
T = Trace of Precipitation, MM = Missing Value Source: NWS Daily Summary

Daily Weather History Graph

Daily Weather History Graph

Search for Another Location

Airport:

Trip Planner

Search our weather history database for the weather conditions in past years. The results will help you decide how hot, cold, wet, or windy it might be!

Date:

Astronomy

Jul. 02, 2013 Rise Set
Actual Time 5:20 AM CDT 8:27 PM CDT
Civil Twilight 4:46 AM CDT 9:01 PM CDT
Nautical Twilight 4:03 AM CDT 9:44 PM CDT
Astronomical Twilight 3:11 AM CDT 10:36 PM CDT
Moon 1:25 AM CDT (7/2) 3:39 PM CDT (7/2)
Length of Visible Light 16h 14m
Length of Day
15h 07m
Waning Crescent, 26% of the Moon is Illuminated
Jul 2
Waning Crescent
Jul 8
New
Jul 15
First Quarter
Jul 22
Full
Jul 29
Last Quarter

Hourly Weather History & Observations

Time (CDT) Temp. Dew Point Humidity Pressure Visibility Wind Dir Wind Speed Gust Speed Precip Events Conditions
12:15 AM 66.2 °F 54.1 °F 65% 30.04 in 10.0 mi NE 8.1 mph - N/A   Clear
12:35 AM 65.8 °F 54.1 °F 66% 30.05 in 10.0 mi NE 6.9 mph - N/A   Clear
12:55 AM 65.7 °F 54.5 °F 67% 30.05 in 10.0 mi NE 5.8 mph - N/A   Clear
1:15 AM 65.5 °F 54.5 °F 68% 30.04 in 10.0 mi NE 5.8 mph - N/A   Scattered Clouds
1:35 AM 65.3 °F 55.4 °F 70% 30.04 in 10.0 mi NE 6.9 mph - N/A   Scattered Clouds
1:55 AM 65.3 °F 54.3 °F 68% 30.04 in 10.0 mi NE 8.1 mph - N/A   Scattered Clouds
2:15 AM 64.9 °F 54.0 °F 68% 30.04 in 10.0 mi NE 9.2 mph - N/A   Clear
2:35 AM 64.9 °F 53.6 °F 67% 30.03 in 10.0 mi NE 8.1 mph - N/A   Scattered Clouds
2:55 AM 64.6 °F 53.6 °F 68% 30.03 in 10.0 mi NE 9.2 mph - N/A   Mostly Cloudy
3:15 AM 64.4 °F 53.8 °F 68% 30.03 in 10.0 mi NE 5.8 mph - N/A   Scattered Clouds
3:35 AM 64.0 °F 53.8 °F 69% 30.03 in 10.0 mi NNE 6.9 mph - N/A   Clear
3:55 AM 63.9 °F 53.4 °F 69% 30.03 in 10.0 mi NE 8.1 mph - N/A   Clear
4:15 AM 63.9 °F 52.9 °F 67% 30.03 in 10.0 mi NNE 8.1 mph - N/A   Clear
4:35 AM 63.7 °F 52.3 °F 67% 30.03 in 10.0 mi NE 8.1 mph - N/A   Scattered Clouds
4:55 AM 63.5 °F 52.0 °F 66% 30.03 in 10.0 mi NE 8.1 mph - N/A   Clear
5:15 AM 63.3 °F 51.8 °F 66% 30.04 in 10.0 mi NNE 8.1 mph - N/A   Clear
5:35 AM 63.5 °F 51.3 °F 64% 30.04 in 10.0 mi NE 9.2 mph - N/A   Scattered Clouds
5:55 AM 63.1 °F 51.8 °F 66% 30.04 in 10.0 mi NNE 6.9 mph - N/A   Scattered Clouds
6:15 AM 63.0 °F 52.2 °F 68% 30.04 in 10.0 mi NNE 6.9 mph - N/A   Clear
6:35 AM 63.0 °F 52.7 °F 69% 30.05 in 10.0 mi NNE 8.1 mph - N/A   Scattered Clouds
6:55 AM 63.1 °F 53.2 °F 70% 30.05 in 10.0 mi NNE 9.2 mph - N/A   Overcast
7:15 AM 63.5 °F 53.6 °F 70% 30.05 in 10.0 mi NE 8.1 mph - N/A   Overcast
7:35 AM 63.9 °F 54.0 °F 70% 30.05 in 10.0 mi NE 6.9 mph - N/A   Overcast
7:55 AM 63.9 °F 54.3 °F 71% 30.06 in 10.0 mi NNE 11.5 mph - N/A   Overcast
8:15 AM 64.0 °F 54.7 °F 72% 30.07 in 10.0 mi NE 9.2 mph 16.1 mph N/A   Overcast
8:35 AM 64.2 °F 55.4 °F 73% 30.07 in 10.0 mi NNE 9.2 mph - N/A   Mostly Cloudy
8:55 AM 63.9 °F 54.9 °F 72% 30.08 in 10.0 mi NE 10.4 mph - N/A   Mostly Cloudy
9:15 AM 64.4 °F 55.8 °F 73% 30.07 in 10.0 mi NE 11.5 mph - N/A   Overcast
9:35 AM 64.6 °F 56.3 °F 74% 30.07 in 10.0 mi NNE 11.5 mph 17.3 mph N/A   Overcast
9:55 AM 63.7 °F 56.3 °F 77% 30.07 in 10.0 mi NNE 11.5 mph 18.4 mph N/A   Overcast
10:15 AM 63.5 °F 56.3 °F 77% 30.07 in 10.0 mi NNE 13.8 mph - N/A   Overcast
10:35 AM 63.1 °F 56.7 °F 79% 30.07 in 10.0 mi NE 11.5 mph 17.3 mph N/A Rain Light Rain
10:55 AM 63.0 °F 56.5 °F 79% 30.08 in 10.0 mi NE 11.5 mph 19.6 mph N/A Rain Light Rain
11:15 AM 62.2 °F 57.4 °F 84% 30.08 in 10.0 mi NE 11.5 mph 17.3 mph N/A Rain Light Rain
11:35 AM 62.6 °F 58.1 °F 85% 30.08 in 10.0 mi NNE 4.6 mph - N/A Rain Light Rain
11:55 AM 62.4 °F 58.1 °F 86% 30.08 in 10.0 mi NNE 12.7 mph 18.4 mph N/A Rain Light Rain
12:15 PM 64.4 °F 57.9 °F 79% 30.07 in 10.0 mi NE 12.7 mph 19.6 mph N/A Rain Light Rain
12:35 PM 65.5 °F 56.8 °F 74% 30.07 in 10.0 mi NNE 15.0 mph 20.7 mph N/A   Mostly Cloudy
12:55 PM 64.6 °F 56.1 °F 74% 30.07 in 10.0 mi NNE 12.7 mph 20.7 mph N/A   Overcast
1:15 PM 64.4 °F 56.5 °F 75% 30.07 in 10.0 mi NE 10.4 mph 18.4 mph N/A   Overcast
1:35 PM 63.5 °F 55.9 °F 76% 30.07 in 10.0 mi NE 6.9 mph - N/A   Overcast
1:55 PM 63.0 °F 55.8 °F 77% 30.07 in 10.0 mi NE 5.8 mph 17.3 mph N/A   Overcast
2:15 PM 63.1 °F 55.4 °F 76% 30.06 in 10.0 mi NNE 9.2 mph 17.3 mph N/A   Overcast
2:35 PM 62.6 °F 55.6 °F 78% 30.07 in 10.0 mi NE 13.8 mph 19.6 mph N/A   Overcast
2:55 PM 61.9 °F 55.9 °F 81% 30.07 in 10.0 mi NE 9.2 mph 17.3 mph N/A   Overcast
3:15 PM 61.7 °F 56.1 °F 82% 30.06 in 10.0 mi NNE 12.7 mph 17.3 mph N/A   Overcast
3:35 PM 61.9 °F 55.6 °F 80% 30.06 in 10.0 mi NNE 12.7 mph 18.4 mph N/A   Overcast
3:55 PM 61.9 °F 56.1 °F 81% 30.06 in 10.0 mi NNE 11.5 mph 16.1 mph N/A   Overcast
4:15 PM 61.2 °F 56.5 °F 85% 30.06 in 10.0 mi NNE 8.1 mph 16.1 mph N/A Rain Light Rain
4:35 PM 60.8 °F 57.2 °F 88% 30.06 in 7.0 mi North 8.1 mph - N/A   Drizzle
4:55 PM 60.6 °F 57.7 °F 90% 30.06 in 7.0 mi North 8.1 mph - N/A   Drizzle
5:15 PM 61.0 °F 58.1 °F 90% 30.06 in 7.0 mi NNE 6.9 mph - N/A   Light Drizzle
5:35 PM 61.0 °F 57.4 °F 88% 30.05 in 10.0 mi NNE 9.2 mph - N/A   Overcast
5:55 PM 61.0 °F 57.2 °F 87% 30.05 in 10.0 mi North 10.4 mph 17.3 mph N/A   Overcast
6:15 PM 61.0 °F 57.6 °F 88% 30.05 in 10.0 mi North 10.4 mph - N/A   Overcast
6:35 PM 61.2 °F 57.4 °F 87% 30.05 in 10.0 mi North 10.4 mph 17.3 mph N/A   Overcast
6:55 PM 61.0 °F 57.2 °F 87% 30.06 in 10.0 mi NNE 8.1 mph - N/A   Overcast
7:15 PM 61.2 °F 57.4 °F 87% 30.05 in 10.0 mi North 5.8 mph - N/A   Overcast
7:35 PM 61.2 °F 57.4 °F 87% 30.06 in 10.0 mi North 8.1 mph - N/A   Overcast
7:55 PM 61.2 °F 57.2 °F 87% 30.06 in 10.0 mi NNE 5.8 mph - N/A   Overcast
8:15 PM 61.3 °F 57.4 °F 87% 30.05 in 10.0 mi North 6.9 mph - N/A   Overcast
8:35 PM 61.2 °F 57.4 °F 87% 30.05 in 10.0 mi NNE 6.9 mph - N/A   Overcast
8:55 PM 61.3 °F 57.7 °F 88% 30.04 in 10.0 mi North 6.9 mph 16.1 mph N/A   Overcast
9:15 PM 61.2 °F 57.7 °F 88% 30.06 in 10.0 mi NNE 6.9 mph - N/A   Overcast
9:35 PM 61.3 °F 58.1 °F 89% 30.06 in 10.0 mi North 6.9 mph - N/A   Overcast
9:55 PM 61.2 °F 58.1 °F 90% 30.06 in 10.0 mi NNE 5.8 mph - N/A   Overcast
10:15 PM 61.2 °F 58.3 °F 90% 30.06 in 7.0 mi NNE 5.8 mph - N/A   Overcast
10:35 PM 61.2 °F 58.5 °F 91% 30.06 in 7.0 mi North 4.6 mph - N/A   Overcast
10:55 PM 61.2 °F 59.0 °F 93% 30.06 in 5.0 mi NNE 5.8 mph - N/A   Overcast
11:15 PM 61.3 °F 59.2 °F 93% 30.05 in 5.0 mi North 3.5 mph - N/A   Overcast
11:35 PM 61.7 °F 59.5 °F 93% 30.04 in 4.0 mi North 4.6 mph - N/A   Overcast
11:55 PM 61.7 °F 59.9 °F 94% 30.05 in 3.0 mi NNE 3.5 mph - N/A   Overcast